Location: Marcé
(47.5801°N, 0.3280°W)
Time: 08:32:09
(UTC+01:00)

Explorer 7 - Pass Details

Date: 04 December 2021
Orbit: 483 x 674 km, 50.3° (Epoch: 24 January)

Event Time Altitude Azimuth Distance (km) Brightness Sun altitude
Rises 11:14:53 0° 289° (WNW) 2,669 9.9 16.8°
Reaches altitude 10° 11:17:09 10° 289° (WNW) 1,750 9.1 17.0°
Maximum altitude 11:21:06 83° 202° (SSW) 510 7.0 17.2°
Drops below altitude 10° 11:24:52 10° 115° (ESE) 1,675 10.1 17.5°
Sets 11:27:00 0° 114° (ESE) 2,544 10.9 17.6°
